Year,Month,Day,Hour,Minute,Value (Times are PST for temperature in C)
2017,08,14,00,00,13.70
2017,08,14,00,01,13.70
2017,08,14,00,02,13.70
2017,08,14,00,03,13.60
2017,08,14,00,04,13.60
2017,08,14,00,05,13.60
2017,08,14,00,06,13.60
2017,08,14,00,07,13.60
2017,08,14,00,08,13.60
2017,08,14,00,09,13.60
2017,08,14,00,10,13.60
2017,08,14,00,11,13.60
2017,08,14,00,12,13.60
2017,08,14,00,13,13.50
2017,08,14,00,14,13.50
2017,08,14,00,15,13.50
2017,08,14,00,16,13.50
2017,08,14,00,17,13.50
2017,08,14,00,18,13.50
2017,08,14,00,19,13.50
2017,08,14,00,20,13.60
2017,08,14,00,21,13.60
2017,08,14,00,22,13.60
2017,08,14,00,23,13.60
2017,08,14,00,24,13.60
2017,08,14,00,25,13.60
2017,08,14,00,26,13.50
2017,08,14,00,27,13.50
2017,08,14,00,28,13.50
2017,08,14,00,29,13.50
2017,08,14,00,30,13.50
2017,08,14,00,31,13.50
2017,08,14,00,32,13.50
2017,08,14,00,33,13.50
2017,08,14,00,34,13.50
2017,08,14,00,35,13.50
2017,08,14,00,36,13.50
2017,08,14,00,37,13.50
2017,08,14,00,38,13.50
2017,08,14,00,39,13.50
2017,08,14,00,40,13.50
2017,08,14,00,41,13.50
2017,08,14,00,42,13.50
2017,08,14,00,43,13.50
2017,08,14,00,44,13.50
2017,08,14,00,45,13.50
2017,08,14,00,46,13.50
2017,08,14,00,47,13.50
2017,08,14,00,48,13.50
2017,08,14,00,49,13.60
2017,08,14,00,50,13.60
2017,08,14,00,51,13.60
2017,08,14,00,52,13.60
2017,08,14,00,53,13.60
2017,08,14,00,54,13.60
2017,08,14,00,55,13.60
2017,08,14,00,56,13.60
2017,08,14,00,57,13.60
2017,08,14,00,58,13.60
2017,08,14,00,59,13.60
2017,08,14,01,00,13.60
2017,08,14,01,01,13.60
2017,08,14,01,02,13.70
2017,08,14,01,03,13.70
2017,08,14,01,04,13.70
2017,08,14,01,05,13.70
2017,08,14,01,06,13.70
2017,08,14,01,07,13.70
2017,08,14,01,08,13.70
2017,08,14,01,09,13.70
2017,08,14,01,10,13.70
2017,08,14,01,11,13.70
2017,08,14,01,12,13.70
2017,08,14,01,13,13.70
2017,08,14,01,14,13.70
2017,08,14,01,15,13.70
2017,08,14,01,16,13.70
2017,08,14,01,17,13.70
2017,08,14,01,18,13.70
2017,08,14,01,19,13.70
2017,08,14,01,20,13.70
2017,08,14,01,21,13.70
2017,08,14,01,22,13.70
2017,08,14,01,23,13.70
2017,08,14,01,24,13.70
2017,08,14,01,25,13.70
2017,08,14,01,26,13.70
2017,08,14,01,27,13.70
2017,08,14,01,28,13.70
2017,08,14,01,29,13.70
2017,08,14,01,30,13.70
2017,08,14,01,31,13.70
2017,08,14,01,32,13.70
2017,08,14,01,33,13.70
2017,08,14,01,34,13.70
2017,08,14,01,35,13.70
2017,08,14,01,36,13.70
2017,08,14,01,37,13.70
2017,08,14,01,38,13.70
2017,08,14,01,39,13.70
2017,08,14,01,40,13.70
2017,08,14,01,41,13.70
2017,08,14,01,42,13.70
2017,08,14,01,43,13.70
2017,08,14,01,44,13.70
2017,08,14,01,45,13.70
2017,08,14,01,46,13.70
2017,08,14,01,47,13.70
2017,08,14,01,48,13.70
2017,08,14,01,49,13.70
2017,08,14,01,50,13.70
2017,08,14,01,51,13.70
2017,08,14,01,52,13.70
2017,08,14,01,53,13.70
2017,08,14,01,54,13.70
2017,08,14,01,55,13.70
2017,08,14,01,56,13.70
2017,08,14,01,57,13.70
2017,08,14,01,58,13.70
2017,08,14,01,59,13.70
2017,08,14,02,00,13.70
2017,08,14,02,01,13.70
2017,08,14,02,02,13.70
2017,08,14,02,03,13.70
2017,08,14,02,04,13.70
2017,08,14,02,05,13.70
2017,08,14,02,06,13.70
2017,08,14,02,07,13.70
2017,08,14,02,08,13.70
2017,08,14,02,09,13.70
2017,08,14,02,10,13.70
2017,08,14,02,11,13.70
2017,08,14,02,12,13.70
2017,08,14,02,13,13.70
2017,08,14,02,14,13.70
2017,08,14,02,15,13.70
2017,08,14,02,16,13.70
2017,08,14,02,17,13.70
2017,08,14,02,18,13.70
2017,08,14,02,19,13.70
2017,08,14,02,20,13.70
2017,08,14,02,21,13.70
2017,08,14,02,22,13.80
2017,08,14,02,23,13.80
2017,08,14,02,24,13.80
2017,08,14,02,25,13.80
2017,08,14,02,26,13.80
2017,08,14,02,27,13.80
2017,08,14,02,28,13.80
2017,08,14,02,29,13.80
2017,08,14,02,30,13.80
2017,08,14,02,31,13.80
2017,08,14,02,32,13.80
2017,08,14,02,33,13.80
2017,08,14,02,34,13.80
2017,08,14,02,35,13.80
2017,08,14,02,36,13.80
2017,08,14,02,37,13.80
2017,08,14,02,38,13.80
2017,08,14,02,39,13.80
2017,08,14,02,40,13.80
2017,08,14,02,41,13.80
2017,08,14,02,42,13.80
2017,08,14,02,43,13.80
2017,08,14,02,44,13.80
2017,08,14,02,45,13.70
2017,08,14,02,46,13.70
2017,08,14,02,47,13.80
2017,08,14,02,48,13.70
2017,08,14,02,49,13.70
2017,08,14,02,50,13.70
2017,08,14,02,51,13.70
2017,08,14,02,52,13.70
2017,08,14,02,53,13.70
2017,08,14,02,54,13.70
2017,08,14,02,55,13.70
2017,08,14,02,56,13.70
2017,08,14,02,57,13.70
2017,08,14,02,58,13.70
2017,08,14,02,59,13.70
2017,08,14,03,00,13.70
2017,08,14,03,01,13.70
2017,08,14,03,02,13.70
2017,08,14,03,03,13.70
2017,08,14,03,04,13.70
2017,08,14,03,05,13.70
2017,08,14,03,06,13.70
2017,08,14,03,07,13.70
2017,08,14,03,08,13.70
2017,08,14,03,09,13.70
2017,08,14,03,10,13.70
2017,08,14,03,11,13.70
2017,08,14,03,12,13.70
2017,08,14,03,13,13.70
2017,08,14,03,14,13.70
2017,08,14,03,15,13.70
2017,08,14,03,16,13.70
2017,08,14,03,17,13.70
2017,08,14,03,18,13.70
2017,08,14,03,19,13.70
2017,08,14,03,20,13.70
2017,08,14,03,21,13.70
2017,08,14,03,22,13.70
2017,08,14,03,23,13.70
2017,08,14,03,24,13.70
2017,08,14,03,25,13.80
2017,08,14,03,26,13.80
2017,08,14,03,27,13.80
2017,08,14,03,28,13.80
2017,08,14,03,29,13.80
2017,08,14,03,30,13.80
2017,08,14,03,31,13.80
2017,08,14,03,32,13.80
2017,08,14,03,33,13.80
2017,08,14,03,34,13.80
2017,08,14,03,35,13.80
2017,08,14,03,36,13.80
2017,08,14,03,37,13.80
2017,08,14,03,38,13.70
2017,08,14,03,39,13.80
2017,08,14,03,40,13.80
2017,08,14,03,41,13.80
2017,08,14,03,42,13.80
2017,08,14,03,43,13.80
2017,08,14,03,44,13.80
2017,08,14,03,45,13.80
2017,08,14,03,46,13.80
2017,08,14,03,47,13.80
2017,08,14,03,48,13.80
2017,08,14,03,49,13.80
2017,08,14,03,50,13.80
2017,08,14,03,51,13.80
2017,08,14,03,52,13.80
2017,08,14,03,53,13.80
2017,08,14,03,54,13.80
2017,08,14,03,55,13.80
2017,08,14,03,56,13.80
2017,08,14,03,57,13.80
2017,08,14,03,58,13.80
2017,08,14,03,59,13.80
2017,08,14,04,00,13.80
2017,08,14,04,01,13.80
2017,08,14,04,02,13.80
2017,08,14,04,03,13.80
2017,08,14,04,04,13.80
2017,08,14,04,05,13.80
2017,08,14,04,06,13.80
2017,08,14,04,07,13.80
2017,08,14,04,08,13.80
2017,08,14,04,09,13.80
2017,08,14,04,10,13.80
2017,08,14,04,11,13.80
2017,08,14,04,12,13.80
2017,08,14,04,13,13.80
2017,08,14,04,14,13.80
2017,08,14,04,15,13.80
2017,08,14,04,16,13.80
2017,08,14,04,17,13.80
2017,08,14,04,18,13.80
2017,08,14,04,19,13.80
2017,08,14,04,20,13.80
2017,08,14,04,21,13.80
2017,08,14,04,22,13.80
2017,08,14,04,23,13.80
2017,08,14,04,24,13.80
2017,08,14,04,25,13.80
2017,08,14,04,26,13.70
2017,08,14,04,27,13.70
2017,08,14,04,28,13.70
2017,08,14,04,29,13.70
2017,08,14,04,30,13.70
2017,08,14,04,31,13.70
2017,08,14,04,32,13.70
2017,08,14,04,33,13.70
2017,08,14,04,34,13.70
2017,08,14,04,35,13.70
2017,08,14,04,36,13.70
2017,08,14,04,37,13.70
2017,08,14,04,38,13.70
2017,08,14,04,39,13.70
2017,08,14,04,40,13.70
2017,08,14,04,41,13.70
2017,08,14,04,42,13.70
2017,08,14,04,43,13.70
2017,08,14,04,44,13.70
2017,08,14,04,45,13.70
2017,08,14,04,46,13.70
2017,08,14,04,47,13.70
2017,08,14,04,48,13.70
2017,08,14,04,49,13.70
2017,08,14,04,50,13.70
2017,08,14,04,51,13.70
2017,08,14,04,52,13.70
2017,08,14,04,53,13.70
2017,08,14,04,54,13.70
2017,08,14,04,55,13.70
2017,08,14,04,56,13.70
2017,08,14,04,57,13.70
2017,08,14,04,58,13.70
2017,08,14,04,59,13.70
2017,08,14,05,00,13.70
2017,08,14,05,01,13.70
2017,08,14,05,02,13.70
2017,08,14,05,03,13.70
2017,08,14,05,04,13.70
2017,08,14,05,05,13.70
2017,08,14,05,06,13.70
2017,08,14,05,07,13.70
2017,08,14,05,08,13.70
2017,08,14,05,09,13.70
2017,08,14,05,10,13.70
2017,08,14,05,11,13.70
2017,08,14,05,12,13.70
2017,08,14,05,13,13.70
2017,08,14,05,14,13.70
2017,08,14,05,15,13.70
2017,08,14,05,16,13.70
2017,08,14,05,17,13.70
2017,08,14,05,18,13.70
2017,08,14,05,19,13.70
2017,08,14,05,20,13.70
2017,08,14,05,21,13.70
2017,08,14,05,22,13.70
2017,08,14,05,23,13.70
2017,08,14,05,24,13.70
2017,08,14,05,25,13.70
2017,08,14,05,26,13.70
2017,08,14,05,27,13.70
2017,08,14,05,28,13.70
2017,08,14,05,29,13.70
2017,08,14,05,30,13.70
2017,08,14,05,31,13.70
2017,08,14,05,32,13.70
2017,08,14,05,33,13.70
2017,08,14,05,34,13.70
2017,08,14,05,35,13.70
2017,08,14,05,36,13.70
2017,08,14,05,37,13.70
2017,08,14,05,38,13.70
2017,08,14,05,39,13.70
2017,08,14,05,40,13.70
2017,08,14,05,41,13.70
2017,08,14,05,42,13.70
2017,08,14,05,43,13.70
2017,08,14,05,44,13.70
2017,08,14,05,45,13.70
2017,08,14,05,46,13.70
2017,08,14,05,47,13.70
2017,08,14,05,48,13.70
2017,08,14,05,49,13.70
2017,08,14,05,50,13.60
2017,08,14,05,51,13.60
2017,08,14,05,52,13.60
2017,08,14,05,53,13.60
2017,08,14,05,54,13.60
2017,08,14,05,55,13.60
2017,08,14,05,56,13.60
2017,08,14,05,57,13.60
2017,08,14,05,58,13.60
2017,08,14,05,59,13.60
2017,08,14,06,00,13.60
2017,08,14,06,01,13.60
2017,08,14,06,02,13.60
2017,08,14,06,03,13.60
2017,08,14,06,04,13.60
2017,08,14,06,05,13.60
2017,08,14,06,06,13.60
2017,08,14,06,07,13.60
2017,08,14,06,08,13.60
2017,08,14,06,09,13.60
2017,08,14,06,10,13.60
2017,08,14,06,11,13.60
2017,08,14,06,12,13.60
2017,08,14,06,13,13.60
2017,08,14,06,14,13.60
2017,08,14,06,15,13.60
2017,08,14,06,16,13.60
2017,08,14,06,17,13.60
2017,08,14,06,18,13.60
2017,08,14,06,19,13.60
2017,08,14,06,20,13.60
2017,08,14,06,21,13.60
2017,08,14,06,22,13.60
2017,08,14,06,23,13.60
2017,08,14,06,24,13.60
2017,08,14,06,25,13.60
2017,08,14,06,26,13.60
2017,08,14,06,27,13.60
2017,08,14,06,28,13.60
2017,08,14,06,29,13.60
2017,08,14,06,30,13.60
2017,08,14,06,31,13.60
2017,08,14,06,32,13.60
2017,08,14,06,33,13.60
2017,08,14,06,34,13.60
2017,08,14,06,35,13.60
2017,08,14,06,36,13.60
2017,08,14,06,37,13.60
2017,08,14,06,38,13.60
2017,08,14,06,39,13.70
2017,08,14,06,40,13.70
2017,08,14,06,41,13.70
2017,08,14,06,42,13.70
2017,08,14,06,43,13.70
2017,08,14,06,44,13.70
2017,08,14,06,45,13.70
2017,08,14,06,46,13.70
2017,08,14,06,47,13.70
2017,08,14,06,48,13.70
2017,08,14,06,49,13.70
2017,08,14,06,50,13.70
2017,08,14,06,51,13.70
2017,08,14,06,52,13.70
2017,08,14,06,53,13.70
2017,08,14,06,54,13.70
2017,08,14,06,55,13.70
2017,08,14,06,56,13.70
2017,08,14,06,57,13.70
2017,08,14,06,58,13.70
2017,08,14,06,59,13.70
2017,08,14,07,00,13.70
2017,08,14,07,01,13.70
2017,08,14,07,02,13.70
2017,08,14,07,03,13.70
2017,08,14,07,04,13.70
2017,08,14,07,05,13.70
2017,08,14,07,06,13.80
2017,08,14,07,07,13.80
2017,08,14,07,08,13.80
2017,08,14,07,09,13.80
2017,08,14,07,10,13.80
2017,08,14,07,11,13.80
2017,08,14,07,12,13.80
2017,08,14,07,13,13.80
2017,08,14,07,14,13.80
2017,08,14,07,15,13.80
2017,08,14,07,16,13.90
2017,08,14,07,17,13.90
2017,08,14,07,18,13.90
2017,08,14,07,19,13.90
2017,08,14,07,20,13.90
2017,08,14,07,21,13.90
2017,08,14,07,22,13.90
2017,08,14,07,23,13.90
2017,08,14,07,24,14.00
2017,08,14,07,25,14.00
2017,08,14,07,26,14.00
2017,08,14,07,27,14.00
2017,08,14,07,28,14.10
2017,08,14,07,29,14.10
2017,08,14,07,30,14.10
2017,08,14,07,31,14.20
2017,08,14,07,32,14.20
2017,08,14,07,33,14.20
2017,08,14,07,34,14.30
2017,08,14,07,35,14.30
2017,08,14,07,36,14.30
2017,08,14,07,37,14.30
2017,08,14,07,38,14.30
2017,08,14,07,39,14.30
2017,08,14,07,40,14.40
2017,08,14,07,41,14.40
2017,08,14,07,42,14.40
2017,08,14,07,43,14.40
2017,08,14,07,44,14.40
2017,08,14,07,45,14.40
2017,08,14,07,46,14.40
2017,08,14,07,47,14.50
2017,08,14,07,48,14.50
2017,08,14,07,49,14.50
2017,08,14,07,50,14.50
2017,08,14,07,51,14.50
2017,08,14,07,52,14.50
2017,08,14,07,53,14.50
2017,08,14,07,54,14.50
2017,08,14,07,55,14.60
2017,08,14,07,56,14.60
2017,08,14,07,57,14.60
2017,08,14,07,58,14.60
2017,08,14,07,59,14.60
2017,08,14,08,00,14.60
2017,08,14,08,01,14.70
2017,08,14,08,02,14.70
2017,08,14,08,03,14.70
2017,08,14,08,04,14.70
2017,08,14,08,05,14.80
2017,08,14,08,06,14.80
2017,08,14,08,07,14.80
2017,08,14,08,08,14.80
2017,08,14,08,09,14.90
2017,08,14,08,10,14.90
2017,08,14,08,11,14.90
2017,08,14,08,12,14.90
2017,08,14,08,13,14.90
2017,08,14,08,14,15.00
2017,08,14,08,15,15.00
2017,08,14,08,16,15.00
2017,08,14,08,17,15.10
2017,08,14,08,18,15.10
2017,08,14,08,19,15.10
2017,08,14,08,20,15.10
2017,08,14,08,21,15.10
2017,08,14,08,22,15.10
2017,08,14,08,23,15.10
2017,08,14,08,24,15.00
2017,08,14,08,25,15.00
2017,08,14,08,26,15.00
2017,08,14,08,27,15.00
2017,08,14,08,28,14.90
2017,08,14,08,29,14.90
2017,08,14,08,30,14.90
2017,08,14,08,31,14.90
2017,08,14,08,32,14.80
2017,08,14,08,33,14.80
2017,08,14,08,34,14.80
2017,08,14,08,35,14.80
2017,08,14,08,36,14.80
2017,08,14,08,37,14.80
2017,08,14,08,38,14.80
2017,08,14,08,39,14.80
2017,08,14,08,40,14.80
2017,08,14,08,41,14.80
2017,08,14,08,42,14.90
2017,08,14,08,43,14.90
2017,08,14,08,44,14.90
2017,08,14,08,45,14.90
2017,08,14,08,46,14.90
2017,08,14,08,47,14.90
2017,08,14,08,48,14.90
2017,08,14,08,49,14.90
2017,08,14,08,50,14.90
2017,08,14,08,51,14.90
2017,08,14,08,52,14.90
2017,08,14,08,53,14.90
2017,08,14,08,54,14.90
2017,08,14,08,55,14.90
2017,08,14,08,56,14.90
2017,08,14,08,57,14.90
2017,08,14,08,58,14.90
2017,08,14,08,59,14.90
2017,08,14,09,00,14.90
2017,08,14,09,01,14.90
2017,08,14,09,02,15.00
2017,08,14,09,03,15.00
2017,08,14,09,04,15.00
2017,08,14,09,05,15.00
2017,08,14,09,06,15.00
2017,08,14,09,07,15.00
2017,08,14,09,08,15.00
2017,08,14,09,09,15.00
2017,08,14,09,10,15.10
2017,08,14,09,11,15.10
2017,08,14,09,12,15.10
2017,08,14,09,13,15.10
2017,08,14,09,14,15.10
2017,08,14,09,15,15.20
2017,08,14,09,16,15.20
2017,08,14,09,17,15.30
2017,08,14,09,18,15.30
2017,08,14,09,19,15.30
2017,08,14,09,20,15.30
2017,08,14,09,21,15.30
2017,08,14,09,22,15.30
2017,08,14,09,23,15.30
2017,08,14,09,24,15.30
2017,08,14,09,25,15.30
2017,08,14,09,26,15.30
2017,08,14,09,27,15.30
2017,08,14,09,28,15.40
2017,08,14,09,29,15.40
2017,08,14,09,30,15.40
2017,08,14,09,31,15.50
2017,08,14,09,32,15.50
2017,08,14,09,33,15.50
2017,08,14,09,34,15.50
2017,08,14,09,35,15.50
2017,08,14,09,36,15.50
2017,08,14,09,37,15.50
2017,08,14,09,38,15.40
2017,08,14,09,39,15.40
2017,08,14,09,40,15.40
2017,08,14,09,41,15.40
2017,08,14,09,42,15.40
2017,08,14,09,43,15.40
2017,08,14,09,44,15.40
2017,08,14,09,45,15.40
2017,08,14,09,46,15.40
2017,08,14,09,47,15.40
2017,08,14,09,48,15.40
2017,08,14,09,49,15.50
2017,08,14,09,50,15.50
2017,08,14,09,51,15.50
2017,08,14,09,52,15.60
2017,08,14,09,53,15.60
2017,08,14,09,54,15.60
2017,08,14,09,55,15.70
2017,08,14,09,56,15.70
2017,08,14,09,57,15.80
2017,08,14,09,58,15.80
2017,08,14,09,59,15.80
2017,08,14,10,00,15.90
2017,08,14,10,01,15.90
2017,08,14,10,02,15.90
2017,08,14,10,03,15.90
2017,08,14,10,04,16.00
2017,08,14,10,05,16.00
2017,08,14,10,06,16.10
2017,08,14,10,07,16.10
2017,08,14,10,08,16.00
2017,08,14,10,09,16.00
2017,08,14,10,10,16.10
2017,08,14,10,11,16.10
2017,08,14,10,12,16.20
2017,08,14,10,13,16.20
2017,08,14,10,14,16.30
2017,08,14,10,15,16.30
2017,08,14,10,16,16.30
2017,08,14,10,17,16.40
2017,08,14,10,18,16.40
2017,08,14,10,19,16.40
2017,08,14,10,20,16.40
2017,08,14,10,21,16.50
2017,08,14,10,22,16.50
2017,08,14,10,23,16.50
2017,08,14,10,24,16.40
2017,08,14,10,25,16.40
2017,08,14,10,26,16.40
2017,08,14,10,27,16.40
2017,08,14,10,28,16.50
2017,08,14,10,29,16.50
2017,08,14,10,30,16.60
2017,08,14,10,31,16.60
2017,08,14,10,32,16.60
2017,08,14,10,33,16.70
2017,08,14,10,34,16.70
2017,08,14,10,35,16.80
2017,08,14,10,36,16.80
2017,08,14,10,37,16.80
2017,08,14,10,38,16.80
2017,08,14,10,39,16.70
2017,08,14,10,40,16.70
2017,08,14,10,41,16.80
2017,08,14,10,42,16.70
2017,08,14,10,43,16.70
2017,08,14,10,44,16.70
2017,08,14,10,45,16.70
2017,08,14,10,46,16.70
2017,08,14,10,47,16.70
2017,08,14,10,48,16.70
2017,08,14,10,49,16.80
2017,08,14,10,50,16.80
2017,08,14,10,51,16.90
2017,08,14,10,52,16.90
2017,08,14,10,53,17.00
2017,08,14,10,54,17.10
2017,08,14,10,55,17.20
2017,08,14,10,56,17.30
2017,08,14,10,57,17.30
2017,08,14,10,58,17.30
2017,08,14,10,59,17.40
2017,08,14,11,00,17.40
2017,08,14,11,01,17.40
2017,08,14,11,02,17.40
2017,08,14,11,03,17.40
2017,08,14,11,04,17.40
2017,08,14,11,05,17.40
2017,08,14,11,06,17.50
2017,08,14,11,07,17.50
2017,08,14,11,08,17.60
2017,08,14,11,09,17.50
2017,08,14,11,10,17.50
2017,08,14,11,11,17.40
2017,08,14,11,12,17.40
2017,08,14,11,13,17.40
2017,08,14,11,14,17.40
2017,08,14,11,15,17.30
2017,08,14,11,16,17.30
2017,08,14,11,17,17.40
2017,08,14,11,18,17.40
2017,08,14,11,19,17.50
2017,08,14,11,20,17.50
2017,08,14,11,21,17.40
2017,08,14,11,22,17.40
2017,08,14,11,23,17.40
2017,08,14,11,24,17.40
2017,08,14,11,25,17.30
2017,08,14,11,26,17.30
2017,08,14,11,27,17.30
2017,08,14,11,28,17.30
2017,08,14,11,29,17.30
2017,08,14,11,30,17.30
2017,08,14,11,31,17.40
2017,08,14,11,32,17.40
2017,08,14,11,33,17.50
2017,08,14,11,34,17.60
2017,08,14,11,35,17.60
2017,08,14,11,36,17.70
2017,08,14,11,37,17.70
2017,08,14,11,38,17.70
2017,08,14,11,39,17.70
2017,08,14,11,40,17.70
2017,08,14,11,41,17.60
2017,08,14,11,42,17.60
2017,08,14,11,43,17.60
2017,08,14,11,44,17.60
2017,08,14,11,45,17.60
2017,08,14,11,46,17.60
2017,08,14,11,47,17.70
2017,08,14,11,48,17.70
2017,08,14,11,49,17.70
2017,08,14,11,50,17.70
2017,08,14,11,51,17.70
2017,08,14,11,52,17.70
2017,08,14,11,53,17.70
2017,08,14,11,54,17.70
2017,08,14,11,55,17.60
2017,08,14,11,56,17.70
2017,08,14,11,57,17.70
2017,08,14,11,58,17.70
2017,08,14,11,59,17.70
2017,08,14,12,00,17.70
2017,08,14,12,01,17.70
2017,08,14,12,02,17.60
2017,08,14,12,03,17.60
2017,08,14,12,04,17.50
2017,08,14,12,05,17.40
2017,08,14,12,06,17.40
2017,08,14,12,07,17.40
2017,08,14,12,08,17.40
2017,08,14,12,09,17.40
2017,08,14,12,10,17.40
2017,08,14,12,11,17.40
2017,08,14,12,12,17.40
2017,08,14,12,13,17.30
2017,08,14,12,14,17.30
2017,08,14,12,15,17.30
2017,08,14,12,16,17.30
2017,08,14,12,17,17.20
2017,08,14,12,18,17.20
2017,08,14,12,19,17.10
2017,08,14,12,20,17.10
2017,08,14,12,21,17.00
2017,08,14,12,22,17.00
2017,08,14,12,23,17.10
2017,08,14,12,24,17.10
2017,08,14,12,25,17.10
2017,08,14,12,26,17.20
2017,08,14,12,27,17.30
2017,08,14,12,28,17.30
2017,08,14,12,29,17.40
2017,08,14,12,30,17.40
2017,08,14,12,31,17.40
2017,08,14,12,32,17.40
2017,08,14,12,33,17.40
2017,08,14,12,34,17.40
2017,08,14,12,35,17.50
2017,08,14,12,36,17.50
2017,08,14,12,37,17.60
2017,08,14,12,38,17.60
2017,08,14,12,39,17.70
2017,08,14,12,40,17.70
2017,08,14,12,41,17.70
2017,08,14,12,42,17.70
2017,08,14,12,43,17.70
2017,08,14,12,44,17.70
2017,08,14,12,45,17.80
2017,08,14,12,46,17.80
2017,08,14,12,47,17.80
2017,08,14,12,48,17.80
2017,08,14,12,49,17.70
2017,08,14,12,50,17.60
2017,08,14,12,51,17.60
2017,08,14,12,52,17.60
2017,08,14,12,53,17.60
2017,08,14,12,54,17.60
2017,08,14,12,55,17.60
2017,08,14,12,56,17.50
2017,08,14,12,57,17.50
2017,08,14,12,58,17.50
2017,08,14,12,59,17.60
2017,08,14,13,00,17.60
2017,08,14,13,01,17.60
2017,08,14,13,02,17.50
2017,08,14,13,03,17.50
2017,08,14,13,04,17.40
2017,08,14,13,05,17.40
2017,08,14,13,06,17.40
2017,08,14,13,07,17.40
2017,08,14,13,08,17.40
2017,08,14,13,09,17.50
2017,08,14,13,10,17.50
2017,08,14,13,11,17.50
2017,08,14,13,12,17.50
2017,08,14,13,13,17.50
2017,08,14,13,14,17.50
2017,08,14,13,15,17.60
2017,08,14,13,16,17.60
2017,08,14,13,17,17.70
2017,08,14,13,18,17.70
2017,08,14,13,19,17.80
2017,08,14,13,20,17.80
2017,08,14,13,21,17.80
2017,08,14,13,22,17.80
2017,08,14,13,23,17.80
2017,08,14,13,24,17.80
2017,08,14,13,25,17.80
2017,08,14,13,26,17.80
2017,08,14,13,27,17.80
2017,08,14,13,28,17.90
2017,08,14,13,29,17.90
2017,08,14,13,30,17.90
2017,08,14,13,31,18.00
2017,08,14,13,32,18.10
2017,08,14,13,33,18.20
2017,08,14,13,34,18.20
2017,08,14,13,35,18.20
2017,08,14,13,36,18.20
2017,08,14,13,37,18.20
2017,08,14,13,38,18.30
2017,08,14,13,39,18.30
2017,08,14,13,40,18.30
2017,08,14,13,41,18.30
2017,08,14,13,42,18.30
2017,08,14,13,43,18.30
2017,08,14,13,44,18.30
2017,08,14,13,45,18.30
2017,08,14,13,46,18.30
2017,08,14,13,47,18.30
2017,08,14,13,48,18.30
2017,08,14,13,49,18.30
2017,08,14,13,50,18.20
2017,08,14,13,51,18.20
2017,08,14,13,52,18.20
2017,08,14,13,53,18.20
2017,08,14,13,54,18.20
2017,08,14,13,55,18.10
2017,08,14,13,56,18.10
2017,08,14,13,57,18.10
2017,08,14,13,58,18.10
2017,08,14,13,59,18.10
2017,08,14,14,00,18.20
2017,08,14,14,01,18.20
2017,08,14,14,02,18.20
2017,08,14,14,03,18.20
2017,08,14,14,04,18.30
2017,08,14,14,05,18.30
2017,08,14,14,06,18.30
2017,08,14,14,07,18.30
2017,08,14,14,08,18.40
2017,08,14,14,09,18.40
2017,08,14,14,10,18.40
2017,08,14,14,11,18.40
2017,08,14,14,12,18.50
2017,08,14,14,13,18.60
2017,08,14,14,14,18.60
2017,08,14,14,15,18.60
2017,08,14,14,16,18.60
2017,08,14,14,17,18.60
2017,08,14,14,18,18.60
2017,08,14,14,19,18.60
2017,08,14,14,20,18.70
2017,08,14,14,21,18.70
2017,08,14,14,22,18.70
2017,08,14,14,23,18.70
2017,08,14,14,24,18.60
2017,08,14,14,25,18.60
2017,08,14,14,26,18.60
2017,08,14,14,27,18.60
2017,08,14,14,28,18.50
2017,08,14,14,29,18.50
2017,08,14,14,30,18.40
2017,08,14,14,31,18.40
2017,08,14,14,32,18.40
2017,08,14,14,33,18.40
2017,08,14,14,34,18.50
2017,08,14,14,35,18.40
2017,08,14,14,36,18.40
2017,08,14,14,37,18.40
2017,08,14,14,38,18.40
2017,08,14,14,39,18.40
2017,08,14,14,40,18.40
2017,08,14,14,41,18.40
2017,08,14,14,42,18.40
2017,08,14,14,43,18.30
2017,08,14,14,44,18.30
2017,08,14,14,45,18.20
2017,08,14,14,46,18.20
2017,08,14,14,47,18.20
2017,08,14,14,48,18.20
2017,08,14,14,49,18.10
2017,08,14,14,50,18.10
2017,08,14,14,51,18.10
2017,08,14,14,52,18.00
2017,08,14,14,53,18.00
2017,08,14,14,54,18.00
2017,08,14,14,55,18.00
2017,08,14,14,56,18.00
2017,08,14,14,57,17.90
2017,08,14,14,58,17.90
2017,08,14,14,59,17.90
2017,08,14,15,00,17.90
2017,08,14,15,01,17.90
2017,08,14,15,02,17.90
2017,08,14,15,03,17.90
2017,08,14,15,04,17.90
2017,08,14,15,05,18.00
2017,08,14,15,06,18.10
2017,08,14,15,07,18.10
2017,08,14,15,08,18.10
2017,08,14,15,09,18.10
2017,08,14,15,10,18.10
2017,08,14,15,11,18.10
2017,08,14,15,12,18.20
2017,08,14,15,13,18.20
2017,08,14,15,14,18.20
2017,08,14,15,15,18.20
2017,08,14,15,16,18.20
2017,08,14,15,17,18.20
2017,08,14,15,18,18.10
2017,08,14,15,19,18.10
2017,08,14,15,20,18.10
2017,08,14,15,21,18.10
2017,08,14,15,22,18.10
2017,08,14,15,23,18.20
2017,08,14,15,24,18.20
2017,08,14,15,25,18.30
2017,08,14,15,26,18.20
2017,08,14,15,27,18.20
2017,08,14,15,28,18.20
2017,08,14,15,29,18.20
2017,08,14,15,30,18.20
2017,08,14,15,31,18.20
2017,08,14,15,32,18.20
2017,08,14,15,33,18.20
2017,08,14,15,34,18.20
2017,08,14,15,35,18.20
2017,08,14,15,36,18.20
2017,08,14,15,37,18.30
2017,08,14,15,38,18.30
2017,08,14,15,39,18.30
2017,08,14,15,40,18.40
2017,08,14,15,41,18.40
2017,08,14,15,42,18.50
2017,08,14,15,43,18.60
2017,08,14,15,44,18.60
2017,08,14,15,45,18.60
2017,08,14,15,46,18.60
2017,08,14,15,47,18.60
2017,08,14,15,48,18.70
2017,08,14,15,49,18.80
2017,08,14,15,50,18.80
2017,08,14,15,51,18.90
2017,08,14,15,52,19.00
2017,08,14,15,53,19.00
2017,08,14,15,54,19.10
2017,08,14,15,55,19.10
2017,08,14,15,56,19.10
2017,08,14,15,57,19.10
2017,08,14,15,58,19.10
2017,08,14,15,59,19.10
2017,08,14,16,00,19.10
2017,08,14,16,01,19.10
2017,08,14,16,02,19.10
2017,08,14,16,03,19.20
2017,08,14,16,04,19.20
2017,08,14,16,05,19.30
2017,08,14,16,06,19.30
2017,08,14,16,07,19.30
2017,08,14,16,08,19.30
2017,08,14,16,09,19.30
2017,08,14,16,10,19.20
2017,08,14,16,11,19.20
2017,08,14,16,12,19.10
2017,08,14,16,13,19.10
2017,08,14,16,14,19.10
2017,08,14,16,15,19.00
2017,08,14,16,16,19.00
2017,08,14,16,17,19.00
2017,08,14,16,18,18.90
2017,08,14,16,19,18.90
2017,08,14,16,20,18.90
2017,08,14,16,21,18.80
2017,08,14,16,22,18.80
2017,08,14,16,23,18.80
2017,08,14,16,24,18.80
2017,08,14,16,25,18.80
2017,08,14,16,26,18.80
2017,08,14,16,27,18.80
2017,08,14,16,28,18.80
2017,08,14,16,29,18.80
2017,08,14,16,30,18.80
2017,08,14,16,31,18.70
2017,08,14,16,32,18.70
2017,08,14,16,33,18.70
2017,08,14,16,34,18.70
2017,08,14,16,35,18.80
2017,08,14,16,36,18.80
2017,08,14,16,37,18.80
2017,08,14,16,38,18.80
2017,08,14,16,39,18.80
2017,08,14,16,40,18.70
2017,08,14,16,41,18.70
2017,08,14,16,42,18.80
2017,08,14,16,43,18.80
2017,08,14,16,44,18.80
2017,08,14,16,45,18.80
2017,08,14,16,46,18.80
2017,08,14,16,47,18.80
2017,08,14,16,48,18.80
2017,08,14,16,49,18.80
2017,08,14,16,50,18.80
2017,08,14,16,51,18.80
2017,08,14,16,52,18.80
2017,08,14,16,53,18.80
2017,08,14,16,54,18.80
2017,08,14,16,55,18.80
2017,08,14,16,56,18.80
2017,08,14,16,57,18.80
2017,08,14,16,58,18.80
2017,08,14,16,59,18.80
2017,08,14,17,00,18.80
2017,08,14,17,01,18.70
2017,08,14,17,02,18.70
2017,08,14,17,03,18.70
2017,08,14,17,04,18.70
2017,08,14,17,05,18.60
2017,08,14,17,06,18.60
2017,08,14,17,07,18.60
2017,08,14,17,08,18.60
2017,08,14,17,09,18.60
2017,08,14,17,10,18.50
2017,08,14,17,11,18.60
2017,08,14,17,12,18.60
2017,08,14,17,13,18.60
2017,08,14,17,14,18.70
2017,08,14,17,15,18.70
2017,08,14,17,16,18.70
2017,08,14,17,17,18.80
2017,08,14,17,18,18.80
2017,08,14,17,19,18.90